730  
ASHW40 PHFO 250310  
RWRHI  
 
WEATHER ROUNDUP FOR HAWAII  
NATIONAL WEATHER SERVICE HONOLULU HI  
500 PM HST FRI OCT 24 2014  
 
THIS IS AN AUTOMATED REPORT THAT HAS NOT BEEN QUALITY CONTROLLED.  
 
NOTE..."FAIR" INDICATES FEW OR NO CLOUDS BELOW 12,000 FEET WITH NO  
SIGNIFICANT WEATHER AND/OR S TO VISIBILITY
.  
 
* - THESE SITES REPORT LIMITED FIELDS  
 
HIZ001>004-250400-  
KAUAI-NIIHAU-  
 
CITY SKY/WX TMP DP RH WIND PRES REMARKS
 
LIHUE APT MOSUNNY 82 70 66 E12 30.02R  
PORT ALLEN* N/A 81 N/A N/A E10 N/A  
POIPU* N/A 81 N/A N/A NE7G15 N/A  
PRINCEVILLE* N/A 81 N/A N/A MISG N/A  
KOKOLE POINT* NOT AVBL  
MOLOAA DAIRY* NOT AVBL  
WAIMEA HTS* NOT AVBL  
PUU OPAE* NOT AVBL  
PUU LUA* NOT AVBL  
MAKAHA RIDGE* NOT AVBL  

 
 
HIZ005>011-250400-  
OAHU-  
 
CITY SKY/WX TMP DP RH WIND PRES REMARKS
 
HONOLULU MOSUNNY 83 68 60 NE15 29.98S  
KALAELOA MOSUNNY 82 66 58 VRB6 30.00R  
KANEOHE MCB PTSUNNY 82 71 69 E12 30.00S  
WHEELER FIELD NOT AVBL  
BELLOWS* NOT AVBL  
KAHUKU* NOT AVBL  
WHEELER* NOT AVBL  
WAIANAE HARBOR NOT AVBL  
DILLINGHAM* N/A 84 68 58 NE8G14 N/A  
KAHUKU TRN* N/A 77 70 78 E6G15 N/A  
KAWAILOA* N/A 77 68 73 E13G22 N/A  
KII* N/A 81 73 78 E14 N/A  
MAKUA RANGE* N/A 81 68 65 SE6G12 N/A  
OAHU FOREST NW NOT AVBL  
SCHOFIELD BRK* N/A 77 64 65 MISG N/A  
SCHOFIELD S* NOT AVBL  
WAIANAE VLY* NOT AVBL  
KUAOKALA* NOT AVBL  
HONOULIUULI* NOT AVBL  
MOKUOLOE IS* N/A N/A N/A N/A MISG N/A  
PALEHUA* NOT AVBL  
WAIAWA PHB* NOT AVBL  

 
 
HIZ012>013-250400-  
MOLOKAI-  
 
CITY SKY/WX TMP DP RH WIND PRES REMARKS
 
MOLOKAI AIRPT MOSUNNY 80 72 76 NE15G22 30.00R  
KALAUPAPA NOT AVBL  
MAKAPULAPAI* NOT AVBL  
MOLOKAI 1* NOT AVBL  
PUU ALII* NOT AVBL  

 
 
HIZ016-250400-  
KAHOOLAWE-  
 
CITY SKY/WX TMP DP RH WIND PRES REMARKS
 
KAHOOLAWE* NOT AVBL  
HAKIOAWA* NOT AVBL  
HONOKANAIA* N/A 85 66 52 E14G26 29.99R  
KANELOA* N/A 81 68 65 E18G32 N/A  
KEALIALALO* NOT AVBL  
LUA MAKIKA* NOT AVBL  

 
 
HIZ014>015-250400-  
LANAI-  
 
CITY SKY/WX TMP DP RH WIND PRES REMARKS
 
LANAI CITY FAIR 78 69 73 NE17 30.04R  
LANAI 1* NOT AVBL  

 
 
HIZ017>028-250400-  
MAUI-  
 
CITY SKY/WX TMP DP RH WIND PRES REMARKS
 
KAHULUI MOSUNNY 83 66 56 NE17G25 29.97R  
KAPALUA-W MAUI MOSUNNY 81 68 65 NE17G25 29.96F  
HANA AIRPORT MOSUNNY 77 70 78 SE2 30.04S  
HANA* NOT AVBL  
HALEAKALA SUMM N/A 45 14 29 SE31 N/A  
MAALAEA BAY* NOT AVBL  
HALEAKALA* NOT AVBL  
KAUPO GAP* NOT AVBL  
KULA 1* N/A 62 56 81 W3G12 N/A  

 
 
HIZ023>026-250400-  
BIG ISLAND OF HAWAII COAST AND LOWER SLOPES-  
 
CITY SKY/WX TMP DP RH WIND PRES REMARKS
 
KAILUA KONA MOSUNNY 83 71 67 S7 29.96R  
HILO SUNNY 79 70 74 E6 30.00R  
HONOKAA* NOT AVBL  
KAWAIHAE MWT* NOT AVBL  
KAWAIHAE* N/A 82 N/A N/A SW3 N/A  
SOUTH POINT* NOT AVBL  
UPOLU AIRPORT* NOT AVBL  
KAMUELA* CLEAR 72 64 78 N18 30.10S  
HAKALAU* N/A 58 51 78 S5G10 N/A  
KALOKO-HONOKO* NOT AVBL  
PALI 2* N/A N/A N/A N/A N14G21 N/A  
KEALAKOMO* N/A 82 72 69 E18G25 N/A  
KAUPULEHU* NOT AVBL  
KAPAPALA* N/A 73 66 78 CALM N/A  
LOWER KAHUKU* NOT AVBL  
PUHE CS* NOT AVBL  
PUHO CS* NOT AVBL  
PTA KEAMUKU* N/A 68 63 83 NE12G18 N/A  
WAIKOLOA* NOT AVBL  

 
 
HIZ027>028-250400-  
BIG ISLAND OF HAWAII INTERIOR AND SUMMMITS-  
 
CITY SKY/WX TMP DP RH WIND PRES REMARKS
 
BRADSHAW FIELD MOSUNNY 61 51 70 W6G15 30.34R  
MK VISITOR CEN NOT AVBL  
MAUNA KEA* N/A 36 -11 13 SE17 N/A WCI 25  
MAUNA LOA* NOT AVBL  
MAUNA LOA 1* NOT AVBL  
PTA KIPUKA* N/A 63 57 82 N6G16 N/A  
PTA RANGE 17* N/A 68 63 83 NW8G17 N/A  
PTA WEST* N/A 64 61 88 NW7G16 N/A  
NENE CABIN* NOT AVBL  
AHUMOA* NOT AVBL  
PTA PORTABLE* NOT AVBL  
PUU MALI* NOT AVBL  

 
 
HIC003-250400-  
NORTHWEST ISLANDS-  
 
CITY SKY/WX TMP DP RH WIND PRES REMARKS
 
MIDWAY ISLAND MOSUNNY 82 72 69 W7 29.92R  
MIDWAY NOS* NOT AVBL  
FRENCH FRIGATE NOT AVBL  

 
 
PHZ110>124-180-250400-  
BUOY REPORTS  
 
STATION/POSITION TIME TEMP WIND PRES WAVE SWELL
 
AIR SEA DIR/SP/G HT/PER HT/DIR  
(UTC) (F) (DEG/KT/KT) (MB) (FT/S) (FT/D)  
BUOY 51001 NOT AVBL  
BUOY 51101 NOT AVBL  
BUOY 51100 0300 78 70/ 14 N/A  
BUOY 51003 0200 81 82 60/ 10/ 12 1014.2S 5/ 7 5  
BUOY 51004 0246 80 81 70/ 14/ 17 1014.0R 6/ 8 5/100  
BARBERS PT BUOY NOT AVBL  
WAIMEA BAY BUOY 0300 82 N/A 5/11  
KAILUA BAY BUOY 0300 82 N/A 6/ 8 2/ 40  
LANAI BUOY 0300 82 N/A 3/13 2/190  
BARBERS PT 2 0300 82 N/A 4/11 3/220  
PAUWELA MAUI 0300 81 N/A 5/12 3/340  
HILO 0300 81 N/A 5/11 2/ 10  
KANEOHE BAY BUOY NOT AVBL  
HANALEI KAUAI NOT AVBL  
KAHULUI HARBOR 0300 81 82 40/ 12/ 19 1015.0R  
HONOLULU HARBOR 0300 83 70/ 4/ 10 1015.7R  
KILO NALU NOT AVBL  
HILO HARBOR 0300 81 60/ 5/ 8 1015.4R  
MOKUOLOE 0300 83 1016.2R  
NAWILIWILI 0300 82 N/A  
WHOTS BUOY NOT AVBL  
BUOY 51028 NOT AVBL  

 
   
.....................KEY.....................................
 
 
SKY/WX - SKY CONDITIONS/PRESENT WEATHER  
TMP - TEMPERATURE IN FAHRENHEIT  
DWPT - DEWPOINT IN FAHRENHEIT  
RH - RELATIVE HUMIDITY IN PERCENT  
WIND - DIRECTION AND SPEED /MPH FOR ISLANDS...KTS FOR BUOYS/  
PRES - MEAN SEA LEVEL PRESSURE IN INCHES OF HG  
VSB - VISIBILITY IN MILES  
HX - HEAT INDEX  
WCI - WIND CHILL INDEX  
VRB - VARIABLE WIND DIRECTION  
N/A - NOT AVAILABLE  
 
CLICK HERE TO GO TO PREVIOUS BULLETINS.

The Nexlab HI Page Main Text Page

The Nexlab HI Page Main Text Page